Regional Weather Roundup
Issued by NWS

Home | Current Version | Previous Version | Text Only | Print | Product List | Glossary Off
Versions: 1 2 3 4 5 6 7 8 9 10 11 12 13 14 15 16 17 18 19 20 21 22 23 24 25 26 27 28 29 30 31 32 33 34 35 36 37 38 39 40 41 42 43 44 45 46 47 48 49 50

025
ASUS45 KBOU 270307
RWRCO

WEATHER ROUNDUP FOR COLORADO
NATIONAL WEATHER SERVICE DENVER/BOULDER CO
900 PM MDT FRI MAY 26 2017

NOTE: "FAIR" INDICATES FEW OR NO CLOUDS BELOW 12000 FEET WITH NO
SIGNIFICANT WEATHER AND/OR OBSTRUCTIONS TO VISIBILITY.

COZ001>005-013-030-031-270400-
...NORTHWEST COLORADO...

CITY           SKY/WX    TMP DP  RH WIND       PRES   REMARKS
CRAIG          FAIR      50  37  61 VRB3      30.02R
HAYDEN         FAIR      50  34  53 CALM      30.02R
MEEKER         CLOUDY    53  39  59 N23G31    29.97R
RABBIT EARS PA NOT AVBL
STEAMBOAT SPGS NOT AVBL
WALDEN         NOT AVBL
$$

COZ006>008-011-270400-
...WEST CENTRAL VALLEYS...

CITY           SKY/WX    TMP DP  RH WIND       PRES   REMARKS
GRAND JUNCTION FAIR      73  19  13 W6        29.78R
MONTROSE       FAIR      69  11  10 S5        29.90R
EAGLE          FAIR      68  12  11 W22       29.91R
RIFLE          FAIR      66  32  28 NW15      29.84R
DELTA          FAIR      75  10   8 S13       29.83R
NUCLA          FAIR      68  10  10 SW8       29.93R
$$

COZ017>023-064>068-270400-
...SOUTHWEST COLORADO...

CITY           SKY/WX    TMP DP  RH WIND       PRES   REMARKS
DURANGO        FAIR      63   7  11 SW6       29.98R
CORTEZ         FAIR      61  21  21 S7        29.93R
PAGOSA SPRINGS FAIR      59   5  11 CALM      30.05S
TELLURIDE      FAIR      57   8  14 SW10      30.13R
WOLF CREEK PAS NOT AVBL
$$

COZ009-010-012-014-032>034-037-058>063-270400-
...CENTRAL COLORADO...

CITY           SKY/WX    TMP DP  RH WIND       PRES   REMARKS
ASPEN          FAIR      52  24  33 S8        29.98R
BUENA VISTA    FAIR      57  11  15 W7        30.00R
COPPER MTN     NOT AVBL
BERTHOUD PASS  NOT AVBL
COTTONWOOD PAS NOT AVBL
GUNNISON       FAIR      58  17  20 W5        30.00R
KREMMLING      NOT AVBL
LEADVILLE      FAIR      48   7  18 S7        30.10R
SALIDA         FAIR      58  17  19 W6        30.05R
SUNLIGHT       NOT AVBL
WILKERSON PASS NOT AVBL
$$

COZ069>075-270400-
...SAN LUIS VALLEY/SANGRE DE CRISTO MOUNTAINS...

CITY           SKY/WX    TMP DP  RH WIND       PRES   REMARKS
ALAMOSA        FAIR      55  18  23 W8        30.02R
DEL NORTE      NOT AVBL
LA VETA PASS   NOT AVBL
SAGUACHE       NOT AVBL
$$

COZ035-036-038>040-270400-
...NORTHERN COLORADO FRONT RANGE...

CITY           SKY/WX    TMP DP  RH WIND       PRES   REMARKS
DENVER INTL AP FAIR      61  50  67 N17G25    29.85R
DMNS CITY PARK   N/A     61  48  62 N20G26    29.89R
AURORA         PTCLDY    59  50  74 NW17      29.87R
FRONT RANGE AP PTCLDY    63  46  55 W17G26    29.85R
ERIE MUNI ARPT NOT AVBL
BOULDER MUN AP NOT AVBL
CENTENNIAL     FAIR      59  41  51 VRB5      29.88R
BROOMFIELD     MOCLDY    61  50  67 N18G28    29.90R
FORT COLLINS   CLOUDY    55  44  66 N31G43    29.91R
LONGMONT       NOT AVBL
$$

COZ041-046-047-076>085-087-088-270400-
...PIKES PEAK/PALMER DIVIDE AND SOUTHERN FOOTHILLS...

CITY           SKY/WX    TMP DP  RH WIND       PRES   REMARKS
COLO. SPRINGS  FAIR      60  40  47 NE17      29.88R
A. F. ACADEMY  FAIR      57  41  54 NW5       29.91R
SCHRIEVER AFB  FAIR      57  40  53 N12G28    29.89R
CHEYENNE MTN   FAIR      60  40  47 NW13      29.88R
ELLICOTT       FAIR     N/A N/A N/A NE18      29.86R
FALCON         FAIR      52  40  62 N7        29.94R
FORT CARSON    FAIR      61  43  51 N13       29.86R
LIMON          LGT RAIN  56  46  69 W28G40    29.94R
MONUMENT HILL  NOT AVBL
CANON CITY     NOT AVBL
WALSENBURG     FAIR      66  18  15 SW13      29.88R
TRINIDAD       FAIR      62  22  21 SW13      29.88R
$$

COZ042>045-048>051-090-091-270400-
...NORTHEAST COLORADO...

CITY           SKY/WX    TMP DP  RH WIND       PRES   REMARKS
GREELEY ARPT   FAIR      54  44  69 N23G33    29.90R
AKRON          FAIR      56  48  74 S20G31    29.82R
BURLINGTON     FAIR      64  52  64 E13G23    29.85R
WRAY           CLOUDY    57  50  77 SE28G39   29.82R
YUMA           NOT AVBL
STERLING       NOT AVBL
HOLYOKE        NOT AVBL
FORT MORGAN    MOCLDY    56  49  78 N21G35    29.87R
$$

COZ086-089-092>099-270400-
...SOUTHEAST COLORADO...

CITY           SKY/WX    TMP DP  RH WIND       PRES   REMARKS
PUEBLO         FAIR      66  27  23 CALM      29.76R
LA JUNTA       FAIR      74  33  22 SW7G18    29.76R
LAMAR          FAIR      69  50  50 SE16      29.73F
SPRINGFIELD      N/A     64  49  57 SE16      29.82S
$$




USA.gov is the U.S. government's official web portal to all federal, state and local government web resources and services.